Weather History for Lacon, IL

Change the Weather History Date:

Saturday, June 1, 2013

  Actual Average (KPIA) Record (KPIA)
Temperature  
Mean Temperature 68 °F 67 °F  
Max Temperature 73 °F 78 °F 105 °F (1934)
Min Temperature 63 °F 57 °F 39 °F (1993)
Degree Days  
Heating Degree Days 0 2  
Month to date heating degree days 2  
Since 1 June heating degree days 2  
Since 1 July heating degree days 5815  
Cooling Degree Days 2 4  
Month to date cooling degree days 4  
Year to date cooling degree days 85  
Since 1 June cooling degree days 4  
Growing Degree Days 18 (Base 50)    
Moisture  
Dew Point 62 °F    
Average Humidity 84    
Maximum Humidity 94    
Minimum Humidity 65    
Precipitation  
Precipitation 0.27 in 0.12 in 2.13 in (1980)
Month to date precipitation 0.12  
Year to date precipitation 14.45  
Snow  
Snow 0.00 in 0.00 in 0.00 in ()
Month to date snowfall 0.0  
Since 1 June snowfall 0.0  
Since 1 July snowfall 24.6  
Snow Depth -    
Sea Level Pressure  
Sea Level Pressure 29.73 in    
Wind  
Wind Speed 10 mph (SSW)    
Max Wind Speed 17 mph    
Max Gust Speed 26 mph    
Visibility 10 miles    
Events Rain , Thunderstorm    
T = Trace of Precipitation, MM = Missing Value Source: NWS Daily Summary

Daily Weather History Graph

Daily Weather History Graph

Search for Another Location

Airport:

Trip Planner

Search our weather history database for the weather conditions in past years. The results will help you decide how hot, cold, wet, or windy it might be!

Date:

Astronomy

Jun. 01, 2013 Rise Set
Actual Time 5:27 AM CDT 8:23 PM CDT
Civil Twilight 4:54 AM CDT 8:56 PM CDT
Nautical Twilight 4:13 AM CDT 9:38 PM CDT
Astronomical Twilight 3:24 AM CDT 10:27 PM CDT
Moon 1:26 AM CDT (6/1) 1:50 PM CDT (6/1)
Length of Visible Light 16h 02m
Length of Day
14h 56m
Last Quarter, 40% of the Moon is Illuminated
Jun 1
Last Quarter
Jun 8
New
Jun 16
First Quarter
Jun 23
Full
Jun 29
Last Quarter

Hourly Weather History & Observations

Time (CDT) Temp. Dew Point Humidity Pressure Visibility Wind Dir Wind Speed Gust Speed Precip Events Conditions
12:15 AM 68.9 °F 64.4 °F 86% 29.72 in 10.0 mi South 9.2 mph - N/A   Clear
12:35 AM 68.0 °F 64.0 °F 87% 29.72 in 10.0 mi South 8.1 mph - N/A   Clear
12:55 AM 68.0 °F 63.1 °F 84% 29.72 in 10.0 mi South 12.7 mph 18.4 mph N/A   Clear
1:15 AM 67.1 °F 63.0 °F 87% 29.73 in 10.0 mi SSW 11.5 mph 17.3 mph N/A   Clear
1:35 AM 66.4 °F 62.6 °F 88% 29.70 in 10.0 mi SSW 11.5 mph 17.3 mph N/A   Clear
1:55 AM 66.4 °F 62.8 °F 88% 29.70 in 10.0 mi SSW 12.7 mph 17.3 mph N/A   Clear
2:15 AM 66.4 °F 62.8 °F 88% 29.71 in 10.0 mi SSW 9.2 mph 18.4 mph N/A   Clear
2:35 AM 66.2 °F 63.0 °F 89% 29.70 in 10.0 mi SSW 10.4 mph - N/A   Clear
2:55 AM 65.8 °F 63.0 °F 90% 29.70 in 10.0 mi SSW 6.9 mph - N/A   Scattered Clouds
3:15 AM 65.7 °F 63.0 °F 91% 29.72 in 10.0 mi SSW 9.2 mph - N/A   Scattered Clouds
3:35 AM 65.7 °F 63.0 °F 91% 29.71 in 10.0 mi SSW 8.1 mph - N/A   Clear
3:55 AM 65.3 °F 62.6 °F 91% 29.70 in 10.0 mi SSW 5.8 mph - N/A   Scattered Clouds
4:15 AM 64.8 °F 62.4 °F 92% 29.70 in 10.0 mi SSW 5.8 mph - N/A   Clear
4:35 AM 64.6 °F 62.1 °F 92% 29.71 in 10.0 mi SSW 6.9 mph - N/A   Clear
4:55 AM 64.0 °F 61.9 °F 93% 29.71 in 10.0 mi South 6.9 mph - N/A   Clear
5:15 AM 63.9 °F 61.7 °F 93% 29.72 in 10.0 mi SSW 5.8 mph - N/A   Clear
5:35 AM 63.5 °F 61.2 °F 92% 29.72 in 10.0 mi SSW 6.9 mph - N/A   Clear
5:55 AM 63.7 °F 61.2 °F 91% 29.71 in 10.0 mi South 5.8 mph - N/A   Clear
6:15 AM 63.7 °F 61.0 °F 91% 29.72 in 10.0 mi South 6.9 mph - N/A   Clear
6:35 AM 64.0 °F 61.2 °F 90% 29.73 in 10.0 mi South 8.1 mph - N/A   Clear
6:55 AM 64.4 °F 61.3 °F 90% 29.73 in 10.0 mi SSW 10.4 mph - N/A   Clear
7:15 AM 64.6 °F 61.7 °F 90% 29.74 in 10.0 mi SSW 10.4 mph - N/A   Scattered Clouds
7:35 AM 65.5 °F 62.2 °F 89% 29.75 in 10.0 mi SSW 11.5 mph 16.1 mph N/A   Mostly Cloudy
7:55 AM 65.7 °F 62.2 °F 89% 29.75 in 10.0 mi SSW 11.5 mph 17.3 mph N/A   Overcast
8:15 AM 65.8 °F 62.4 °F 89% 29.75 in 10.0 mi SSW 10.4 mph 18.4 mph N/A   Overcast
8:35 AM 66.4 °F 62.6 °F 88% 29.75 in 10.0 mi SSW 10.4 mph 18.4 mph N/A   Overcast
8:55 AM 67.3 °F 62.2 °F 84% 29.75 in 10.0 mi SSW 13.8 mph 21.9 mph N/A   Overcast
9:15 AM 67.5 °F 62.4 °F 84% 29.76 in 10.0 mi SSW 17.3 mph 25.3 mph N/A   Overcast
9:35 AM 67.6 °F 62.6 °F 84% 29.75 in 10.0 mi SSW 12.7 mph 21.9 mph N/A   Overcast
9:55 AM 68.0 °F 62.6 °F 83% 29.75 in 10.0 mi SSW 15.0 mph 26.5 mph N/A   Overcast
10:15 AM 69.4 °F 63.1 °F 80% 29.73 in 10.0 mi SSW 17.3 mph 23.0 mph N/A   Overcast
10:35 AM 68.9 °F 62.8 °F 81% 29.73 in 10.0 mi SSW 15.0 mph 26.5 mph N/A   Mostly Cloudy
10:55 AM 68.9 °F 62.8 °F 81% 29.74 in 10.0 mi SSW 15.0 mph 21.9 mph N/A   Overcast
11:15 AM 69.6 °F 63.9 °F 82% 29.73 in 10.0 mi SSW 12.7 mph 19.6 mph N/A   Overcast
11:35 AM 70.3 °F 64.2 °F 81% 29.73 in 10.0 mi SSW 11.5 mph - N/A   Mostly Cloudy
11:55 AM 70.2 °F 63.5 °F 79% 29.72 in 10.0 mi SSW 12.7 mph 20.7 mph N/A   Overcast
12:15 PM 70.7 °F 64.0 °F 79% 29.72 in 10.0 mi SSW 16.1 mph 20.7 mph N/A   Mostly Cloudy
12:35 PM 70.5 °F 63.9 °F 79% 29.73 in 10.0 mi SSW 13.8 mph 18.4 mph N/A   Mostly Cloudy
12:55 PM 70.3 °F 63.9 °F 80% 29.73 in 10.0 mi SSW 15.0 mph 19.6 mph N/A   Scattered Clouds
1:15 PM 70.9 °F 64.9 °F 81% 29.73 in 10.0 mi SSW 10.4 mph - N/A   Mostly Cloudy
1:35 PM 70.0 °F 64.4 °F 82% 29.72 in 10.0 mi SSW 10.4 mph 19.6 mph N/A   Overcast
1:55 PM 71.2 °F 64.9 °F 80% 29.72 in 10.0 mi SSW 12.7 mph 18.4 mph N/A   Overcast
2:15 PM 72.3 °F 66.4 °F 82% 29.71 in 7.0 mi South 10.4 mph - N/A Rain Light Rain
2:35 PM 70.3 °F 66.4 °F 87% 29.71 in 10.0 mi SSW 10.4 mph - N/A   Overcast
2:55 PM 68.4 °F 66.6 °F 94% 29.71 in 3.0 mi SSW 6.9 mph - 0.06 in Rain Light Rain
3:15 PM 69.4 °F 66.9 °F 92% 29.71 in 10.0 mi SW 6.9 mph - N/A   Mostly Cloudy
3:35 PM 71.8 °F 68.4 °F 89% 29.69 in 10.0 mi South 9.2 mph - N/A   Scattered Clouds
3:55 PM 71.2 °F 66.4 °F 85% 29.70 in 10.0 mi SSW 10.4 mph 18.4 mph N/A   Scattered Clouds
4:15 PM 68.7 °F 66.0 °F 91% 29.70 in 3.0 mi South 8.1 mph 17.3 mph 0.09 in Rain , Thunderstorm Heavy Thunderstorms and Rain
4:35 PM 67.5 °F 65.5 °F 93% 29.72 in 4.0 mi SW 11.5 mph - 0.19 in Rain , Thunderstorm Rain
4:55 PM 65.7 °F 61.2 °F 85% 29.70 in 10.0 mi Calm Calm - 0.21 in Rain , Thunderstorm Light Thunderstorms and Rain
5:15 PM 68.0 °F 64.2 °F 88% 29.70 in 10.0 mi South 6.9 mph - N/A   Mostly Cloudy
5:35 PM 69.8 °F 63.9 °F 81% 29.70 in 10.0 mi South 8.1 mph - N/A   Scattered Clouds
5:55 PM 69.3 °F 63.7 °F 82% 29.70 in 10.0 mi South 8.1 mph - N/A Thunderstorm Thunderstorm
6:15 PM 69.3 °F 64.4 °F 84% 29.69 in 10.0 mi SSW 6.9 mph - N/A   Clear
6:35 PM 68.7 °F 64.2 °F 86% 29.69 in 10.0 mi SSW 5.8 mph - N/A   Clear
6:55 PM 69.4 °F 63.5 °F 81% 29.70 in 10.0 mi WSW 6.9 mph - N/A   Scattered Clouds
7:15 PM 71.1 °F 58.8 °F 65% 29.70 in 10.0 mi West 11.5 mph 18.4 mph N/A   Scattered Clouds
7:35 PM 69.3 °F 57.7 °F 67% 29.71 in 10.0 mi West 6.9 mph - N/A   Scattered Clouds
7:55 PM 68.9 °F 57.9 °F 68% 29.73 in 10.0 mi West 8.1 mph - N/A   Mostly Cloudy
8:15 PM 68.4 °F 57.6 °F 68% 29.73 in 10.0 mi West 9.2 mph - N/A   Overcast
8:35 PM 67.5 °F 57.9 °F 71% 29.74 in 10.0 mi West 8.1 mph 17.3 mph N/A   Mostly Cloudy
8:55 PM 67.1 °F 57.2 °F 70% 29.75 in 10.0 mi West 10.4 mph 16.1 mph N/A   Overcast
9:15 PM 66.6 °F 58.1 °F 74% 29.75 in 10.0 mi West 6.9 mph - N/A   Overcast
9:35 PM 65.8 °F 58.1 °F 76% 29.77 in 10.0 mi West 6.9 mph - N/A   Mostly Cloudy
9:55 PM 64.8 °F 58.1 °F 79% 29.77 in 10.0 mi WSW 6.9 mph - N/A   Scattered Clouds
10:15 PM 64.4 °F 57.6 °F 78% 29.77 in 10.0 mi West 8.1 mph - N/A   Clear
10:35 PM 63.9 °F 58.1 °F 81% 29.78 in 10.0 mi West 8.1 mph - N/A   Clear
10:55 PM 63.5 °F 58.1 °F 83% 29.78 in 10.0 mi WSW 5.8 mph - N/A   Clear
11:15 PM 63.0 °F 57.7 °F 83% 29.78 in 10.0 mi WSW 8.1 mph - N/A   Clear
11:35 PM 63.1 °F 57.6 °F 82% 29.79 in 10.0 mi WSW 6.9 mph - N/A   Clear
11:55 PM 63.1 °F 57.6 °F 82% 29.79 in 10.0 mi WSW 6.9 mph - N/A   Mostly Cloudy